Location: Bu�n Treun
(12.1333°N, 108.3167°E)
Time: 18:56:30
(UTC+00:00)

Envisat - Visible Passes

Search period start: 08 December 2022 00:00
Search period end: 18 December 2022 00:00
Orbit: 763 x 765 km, 98.2° (Epoch: 08 December)

Date Brightness Start Highest point End Pass type
(mag) Time Alt. Az. Time Alt. Az. Time Alt. Az.
08 Dec 5.8 19:55:03 12° SE 19:55:03 12° SE 19:55:37 10° SE visible
09 Dec 4.9 20:57:54 17° SSW 20:57:54 17° SSW 20:59:06 10° SSW visible
10 Dec 5.3 20:20:34 17° SSE 20:20:34 17° SSE 20:21:48 10° SSE visible
11 Dec 5.2 21:23:25 11° SW 21:23:25 11° SW 21:23:36 10° SW visible
12 Dec 5.1 20:46:05 17° S 20:46:05 17° S 20:47:11 10° S visible
13 Dec 5.6 20:08:44 13° SSE 20:08:44 13° SSE 20:09:27 10° SSE visible
14 Dec 5.2 21:11:35 12° SSW 21:11:35 12° SSW 21:11:57 10° SSW visible
15 Dec 5.3 20:34:15 15° S 20:34:15 15° S 20:35:08 10° S visible
17 Dec 5.3 20:59:46 12° SSW 20:59:46 12° SSW 21:00:11 10° SSW visible
